Weather History for LIQC - September, 2013

Change the Weather History Date:

Friday, September 13, 2013

  Actual Average Record
Temperature  
Mean Temperature 76 °F -  
Max Temperature 84 °F - - ()
Min Temperature 69 °F - - ()
Cooling Degree Days 12    
Growing Degree Days 26 (Base 50)    
Moisture  
Dew Point 64 °F    
Average Humidity 69    
Maximum Humidity 83    
Minimum Humidity 46    
Precipitation  
Precipitation 0.00 in - - ()
Sea Level Pressure  
Sea Level Pressure 30.05 in    
Wind  
Wind Speed 4 mph ()    
Max Wind Speed 7 mph    
Max Gust Speed -    
Visibility 12.0 miles    
Events      
T = Trace of Precipitation, MM = Missing Value Source: Averaged Metar Reports

Daily Weather History Graph

Daily Weather History Graph

Search for Another Location

Airport or City:

Trip Planner

Search our weather history database for the weather conditions in past years. The results will help you decide how hot, cold, wet, or windy it might be!

Date:

Astronomy

Sep. 13, 2013 Rise Set
Actual Time 6:41 AM CEST 7:15 PM CEST
Civil Twilight 6:14 AM CEST 7:42 PM CEST
Nautical Twilight 5:42 AM CEST 8:15 PM CEST
Astronomical Twilight 5:08 AM CEST 8:48 PM CEST
Moon 2:50 PM CEST (9/13) No Moon Set
Length of Visible Light 13h 28m
Length of Day
12h 33m
First Quarter, 58% of the Moon is Illuminated
Sep 13
First Quarter
Sep 19
Full
Sep 27
Last Quarter
Oct 5
New
Oct 12
First Quarter

Hourly Weather History & Observations

Time (CEST) Temp. Heat Index Dew Point Humidity Pressure Visibility Wind Dir Wind Speed Gust Speed Precip Events Conditions
12:55 AM 71.6 °F - 62.6 °F 73% 30.06 in - North - - N/A   Scattered Clouds
1:55 AM 71.6 °F - 62.6 °F 73% 30.01 in - North - - N/A   Scattered Clouds
5:00 AM 71 °F - 62 °F 67% 29.99 in 12 mi 6.9 mph - -   Partly Cloudy
6:55 AM 69.8 °F - 62.6 °F 78% 30.01 in - North - - N/A   Scattered Clouds
7:55 AM 69.8 °F - 62.6 °F 78% 30.01 in - North - - N/A   Mostly Cloudy
8:00 AM 71 °F - 63 °F 68% 29.99 in 12 mi 4.6 mph - -   Mostly Cloudy
8:55 AM 69.8 °F - 64.4 °F 83% 30.01 in - North - - N/A   Mostly Cloudy
9:55 AM 71.6 °F - 64.4 °F 78% 30.01 in - North - - N/A   Scattered Clouds
10:55 AM 75.2 °F - 66.2 °F 73% 30.01 in - North - - N/A   Scattered Clouds
11:00 AM 74 °F - 66 °F 71% 30.00 in 12 mi 2.3 mph - -   Partly Cloudy
11:55 AM 75.2 °F - 64.4 °F 69% 30.04 in - North - - N/A   Partly Cloudy
12:55 PM 75.2 °F - 64.4 °F 69% 30.04 in - North - - N/A   Partly Cloudy
1:55 PM 80.6 °F 82.3 °F 64.4 °F 58% 30.06 in - North - - N/A   Clear
2:00 PM 80 °F - 64 °F 49% 30.04 in 12 mi 5.8 mph - -  
2:55 PM 82.4 °F 83.9 °F 64.4 °F 54% 30.06 in - North - - N/A   Clear
3:55 PM 84.2 °F 85.6 °F 64.4 °F 51% 30.06 in - North - - N/A   Clear
5:00 PM 83 °F - 65 °F 46% 30.04 in 12 mi 5.8 mph - -  
5:55 PM 82.4 °F 84.6 °F 66.2 °F 58% 30.06 in - North - - N/A   Clear
6:55 PM 80.6 °F 82.7 °F 66.2 °F 61% 30.06 in - North - - N/A   Clear
7:55 PM 75.2 °F - 66.2 °F 73% 30.06 in - North - - N/A   Clear
8:00 PM 75 °F - 66 °F 68% 30.06 in 12 mi 4.6 mph - -   Scattered Clouds
8:55 PM 73.4 °F - 66.2 °F 78% 30.09 in - North - - N/A   Clear
9:55 PM 71.6 °F - 64.4 °F 78% 30.09 in - North - - N/A   Clear
10:55 PM 71.6 °F - 64.4 °F 78% 30.12 in - North - - N/A   Clear
11:00 PM 72 °F - 65 °F 72% 30.11 in 12 mi 3.5 mph - -  
11:55 PM 71.6 °F - 64.4 °F 78% 30.12 in - North - - N/A   Clear